Wind_Speed
22 24 26 20 17 15 16 16 17 19 19 21 21 24 23 27 27 27 22 15 18 17 15 16 12 10 9 7 6 5 4 3 3 3 4 5 6 6 7 8 9 10 11 12
26 31 22 20 21 20 20 21 23 23 23 24 25 28 25 25 26 22 17 19 20 18 18 13 9 8 8 7 6 6 6 6 6 6 5 6 7 8 8 8 10 11 12 14
31 25 18 23 24 24 27 27 27 25 23 25 27 32 30 23 18 16 19 21 19 21 16 12 10 8 8 8 8 7 8 8 7 7 7 8 9 9 10 12 13 13 14 16
27 30 32 32 31 27 33 31 28 24 22 14 12 7 9 11 15 18 19 22 24 20 16 14 12 12 11 10 11 11 12 14 14 14 13 13 12 12 14 16 18 21 24 25
32 26 24 27 28 26 34 29 24 19 18 21 20 10 13 14 17 19 22 24 23 19 17 16 15 14 12 12 13 14 14 15 15 14 13 14 15 15 20 20 21 24 26 27
40 39 34 29 27 25 24 17 15 12 12 7 25 22 11 14 9 12 14 21 23 20 19 18 18 16 15 14 15 15 14 14 13 14 15 17 19 22 26 29 30 31 30 33
34 37 35 30 26 22 23 18 4 2 4 6 13 17 25 13 10 13 14 22 22 22 21 20 19 19 17 15 16 17 17 17 18 19 21 24 28 32 34 37 39 40 43 45
17 12 31 32 32 26 30 30 9 7 4 2 10 10 8 17 17 17 17 20 22 23 24 22 22 20 19 18 21 21 21 21 23 26 28 31 35 38 40 42 42 43 44 41
14 16 15 20 31 27 28 34 28 3 4 2 9 11 11 14 15 15 19 23 21 22 23 23 22 21 19 21 22 22 24 26 28 29 33 38 40 41 41 41 42 43 43 41
19 9 17 30 26 33 20 29 16 12 2 5 5 10 13 8 11 16 17 19 23 25 26 25 23 22 22 23 23 24 27 29 32 34 37 42 43 42 42 41 41 41 41 41
36 22 12 28 32 38 37 28 20 14 13 5 2 6 10 13 10 9 11 17 23 24 24 23 23 23 23 24 26 28 31 34 37 40 42 43 41 40 40 40 39 39 39 38
42 24 22 29 31 35 36 39 41 23 9 13 9 14 15 11 14 12 13 17 21 24 25 24 24 24 26 25 30 35 38 40 40 41 41 37 37 37 37 36 34 35 34 35
43 26 13 10 24 30 39 42 39 40 31 32 11 10 14 15 18 13 15 18 21 22 24 26 29 32 29 32 36 40 41 38 38 38 37 36 35 34 34 34 34 34 35 36
35 42 38 32 21 30 44 42 41 39 33 29 40 33 29 29 29 26 20 21 23 25 30 33 33 32 33 38 43 38 36 36 37 37 35 32 32 33 33 32 33 35 37 37
45 44 48 46 31 30 27 31 39 48 46 30 39 41 41 35 33 30 25 30 30 31 31 33 34 34 43 39 33 32 34 35 35 34 32 32 32 31 32 34 36 36 35 35
52 35 50 46 41 33 32 35 37 34 35 38 40 46 43 39 34 32 32 36 34 30 30 32 39 42 33 29 31 32 32 32 33 33 31 30 30 34 35 35 35 34 35 35
53 48 30 25 36 31 25 49 43 42 45 44 46 49 43 36 32 31 31 30 33 35 38 41 39 33 30 32 33 33 30 30 31 30 29 31 34 34 34 34 34 35 35 36
52 43 30 15 19 8 24 31 28 32 35 33 32 33 29 28 27 28 32 33 31 31 32 31 30 32 34 35 35 31 28 27 28 29 32 33 33 33 34 34 34 36 37 37
36 40 19 10 20 13 18 26 26 24 27 23 21 20 19 22 28 31 30 33 34 30 28 31 33 35 37 37 34 30 28 27 30 31 31 31 32 33 34 34 36 37 38 37
33 34 32 15 7 10 17 24 22 17 27 27 26 22 21 23 28 26 27 27 27 27 28 30 34 39 38 34 31 31 30 30 30 28 28 30 31 32 33 35 38 40 39 39
35 33 37 26 14 11 25 25 20 14 21 24 17 18 19 19 18 21 25 26 26 28 33 34 35 35 29 28 30 31 30 29 27 27 28 30 31 32 33 36 39 41 39 38
30 24 23 23 14 13 22 23 26 22 18 19 22 18 15 19 25 25 25 28 31 31 32 33 33 31 27 29 30 30 29 27 27 28 30 31 31 33 35 37 40 41 42 41
18 23 16 17 17 19 16 14 14 16 18 18 21 26 29 28 28 26 28 28 29 32 33 33 28 26 30 31 30 30 29 29 29 29 31 32 32 34 37 38 40 39 41 40
28 30 31 31 35 32 18 14 15 16 19 22 24 25 27 28 26 26 27 30 32 33 33 32 27 27 32 34 33 32 32 31 31 32 35 34 34 36 39 40 40 41 42 43
26 30 32 35 32 21 21 20 15 16 21 24 25 27 28 25 26 28 30 31 32 30 32 32 29 30 35 37 35 34 35 34 33 34 35 36 37 39 41 42 41 43 42 42
32 35 31 25 17 14 10 10 14 20 25 26 26 26 26 28 27 27 29 30 28 28 31 33 35 36 34 36 36 35 35 34 34 35 36 38 39 40 40 41 42 42 40 39
Wind_Direction
252 249 251 273 279 262 252 252 261 271 273 272 272 269 272 272 273 276 277 264 273 275 274 281 280 266 263 261 251 238 257 281 288 288 282 272 265 272 285 297 301 310 316 315
252 254 268 260 253 249 249 256 262 270 271 273 274 275 270 269 270 266 253 270 275 270 288 277 258 261 270 282 281 277 283 295 304 299 297 292 291 295 307 321 327 327 327 329
258 259 257 248 246 250 256 259 266 271 271 273 278 279 275 266 250 240 259 269 267 276 278 254 247 241 251 246 244 247 259 269 276 273 267 269 273 278 283 294 299 307 314 317
262 255 251 254 252 255 261 266 265 262 262 255 259 279 251 237 240 248 254 261 264 266 253 245 245 243 244 242 245 245 247 250 254 254 257 264 277 285 290 293 293 296 299 301
254 260 259 254 262 262 263 264 262 251 245 253 243 247 234 251 259 266 265 262 256 256 238 241 243 241 238 242 247 248 245 249 254 255 259 261 263 271 280 280 289 293 291 292
254 254 256 258 255 249 250 244 230 242 232 245 238 224 216 223 204 235 246 257 259 244 233 239 241 239 240 237 248 249 252 258 263 264 264 271 280 286 294 298 302 308 313 313
250 250 251 247 239 232 213 198 173 232 216 234 199 221 235 209 218 214 238 237 242 236 236 239 238 238 240 240 249 254 260 269 275 282 290 299 304 307 310 312 312 313 311 307
235 245 233 233 225 224 213 199 187 199 201 239 206 231 236 219 233 229 232 237 238 240 237 237 241 240 242 250 258 265 274 281 291 299 305 307 307 308 307 306 306 304 301 302
223 234 230 215 218 211 204 205 217 216 245 274 231 250 244 217 222 232 239 240 240 240 238 240 243 246 249 252 258 267 278 287 292 295 299 304 305 304 304 304 303 301 301 302
230 234 220 210 209 213 216 209 204 212 196 248 238 239 232 184 223 230 235 244 249 249 246 244 243 244 250 257 265 276 282 286 291 293 300 304 302 300 300 299 300 301 303 305
227 219 211 204 210 211 210 209 210 216 225 187 231 232 178 171 183 214 244 249 251 254 243 238 240 245 250 263 274 279 283 291 293 295 297 297 297 298 299 301 303 304 305 305
223 221 225 216 218 221 226 226 223 212 209 228 248 254 198 212 257 272 255 253 250 248 248 246 247 252 262 268 281 287 291 289 290 292 293 294 297 299 301 301 300 302 301 300
219 213 201 218 228 223 223 224 227 229 239 235 211 248 214 247 276 279 274 257 253 250 253 257 262 268 266 275 280 284 286 286 288 290 293 295 295 294 294 297 298 297 298 298
221 218 221 225 229 228 219 224 227 229 227 232 235 246 249 263 276 283 273 254 254 259 266 266 262 261 265 277 282 279 281 284 289 291 291 289 289 291 293 293 295 296 296 294
219 219 227 232 236 239 234 229 232 231 233 229 250 256 262 267 275 279 271 267 264 266 261 256 255 259 281 279 273 277 283 287 287 287 284 286 288 289 293 293 293 294 294 295
219 221 224 226 226 226 230 237 241 243 247 252 254 258 261 265 269 271 269 270 271 267 260 258 263 277 273 269 278 286 286 283 282 281 282 283 289 291 291 291 291 292 294 296
214 214 205 217 222 225 235 240 244 247 251 254 248 264 269 269 271 271 273 265 263 264 266 267 270 267 269 280 288 291 283 277 278 279 280 286 289 288 289 288 288 292 295 297
220 218 211 218 205 217 238 246 244 247 256 258 261 266 268 267 264 262 262 262 262 261 263 264 267 269 277 287 293 288 280 276 277 280 285 286 284 284 285 285 288 293 294 296
220 221 219 206 206 249 243 246 250 256 263 262 260 253 247 255 258 257 262 259 265 262 264 270 273 279 284 291 292 284 278 278 282 285 283 280 280 282 281 282 287 292 291 295
221 222 219 202 196 205 251 252 264 254 265 270 268 264 254 258 260 275 263 260 261 267 271 275 279 282 284 290 282 277 279 283 288 283 277 278 281 280 280 281 287 292 294 294
209 215 216 217 220 237 247 247 249 233 270 279 272 269 265 265 266 258 261 265 264 270 281 281 281 286 286 279 276 280 284 289 286 279 282 285 283 280 280 281 284 289 294 295
207 202 211 222 225 244 243 244 245 264 264 271 278 273 274 273 274 276 272 276 280 281 280 285 288 286 278 274 281 285 288 293 287 284 287 291 284 279 281 284 286 288 293 292
207 215 226 227 244 253 263 253 251 254 260 259 266 276 279 279 280 281 279 281 282 283 287 295 290 276 271 280 285 288 295 292 287 291 293 293 286 283 284 287 289 289 290 293
238 244 242 250 257 252 236 230 243 253 258 264 270 274 277 282 284 280 281 283 285 289 293 290 281 270 271 279 284 289 290 290 287 288 290 290 285 285 287 288 290 291 290 290
245 254 251 249 248 253 260 264 257 249 257 267 272 275 275 272 273 279 283 285 286 286 286 286 280 280 281 277 281 284 286 284 284 285 286 287 284 284 285 286 287 289 289 290
251 251 252 257 267 269 261 263 254 249 270 271 264 264 263 265 274 279 280 282 280 280 283 285 284 287 286 280 282 284 283 282 286 288 289 289 285 285 287 289 289 290 290 290
Height
3147 3148 3147 3151 3153 3153 3153 3153 3154 3154 3155 3153 3153 3153 3155 3153 3151 3151 3152 3152 3152 3151 3151 3151 3151 3151 3151 3151 3151 3151 3151 3151 3152 3152 3152 3153 3153 3153 3153 3152 3151 3150 3149 3149
3143 3139 3146 3147 3146 3148 3148 3148 3149 3150 3149 3148 3147 3145 3146 3146 3145 3145 3147 3147 3146 3146 3147 3147 3148 3149 3150 3150 3150 3151 3152 3152 3151 3150 3151 3151 3151 3151 3151 3150 3150 3148 3148 3147
3135 3137 3139 3140 3140 3142 3142 3142 3143 3146 3145 3142 3140 3136 3137 3138 3139 3141 3141 3141 3141 3142 3142 3143 3144 3145 3146 3145 3145 3145 3145 3146 3147 3147 3148 3147 3147 3147 3147 3146 3145 3144 3144 3143
3127 3129 3131 3133 3134 3137 3134 3138 3139 3139 3140 3138 3136 3132 3130 3132 3134 3135 3136 3137 3137 3137 3137 3139 3141 3142 3143 3144 3145 3145 3145 3145 3144 3143 3143 3142 3143 3143 3143 3142 3142 3141 3141 3140
3120 3120 3123 3123 3127 3131 3128 3131 3133 3133 3133 3132 3131 3131 3120 3126 3127 3129 3131 3131 3131 3132 3134 3134 3136 3138 3139 3140 3141 3142 3142 3141 3141 3140 3141 3140 3139 3139 3138 3137 3138 3137 3137 3134
3112 3113 3115 3118 3120 3122 3123 3126 3129 3129 3130 3126 3121 3123 3113 3116 3119 3120 3122 3124 3126 3128 3128 3128 3130 3133 3134 3135 3137 3137 3138 3138 3138 3137 3136 3136 3136 3136 3134 3132 3130 3128 3127 3124
3104 3103 3106 3110 3113 3115 3116 3121 3126 3129 3128 3117 3113 3114 3105 3111 3114 3117 3118 3117 3118 3120 3122 3123 3124 3126 3128 3130 3133 3134 3132 3133 3133 3132 3131 3130 3129 3127 3126 3123 3120 3118 3116 3114
3097 3097 3096 3098 3102 3106 3107 3112 3111 3118 3118 3111 3111 3103 3100 3103 3108 3111 3113 3113 3113 3115 3117 3119 3120 3120 3121 3124 3124 3128 3128 3127 3126 3125 3123 3121 3120 3118 3117 3116 3114 3112 3110 3107
3090 3089 3089 3091 3095 3102 3101 3103 3107 3106 3108 3109 3101 3096 3097 3100 3103 3106 3107 3108 3109 3110 3112 3113 3115 3117 3117 3119 3118 3119 3120 3119 3119 3117 3116 3115 3112 3111 3108 3106 3104 3103 3101 3098
3084 3085 3084 3087 3090 3094 3095 3100 3103 3103 3106 3105 3091 3089 3090 3093 3098 3100 3102 3103 3104 3105 3106 3108 3109 3110 3112 3114 3113 3113 3113 3112 3111 3110 3107 3106 3104 3101 3100 3098 3096 3092 3091 3088
3078 3080 3080 3080 3079 3081 3086 3088 3092 3095 3093 3091 3091 3081 3082 3087 3092 3097 3099 3100 3100 3100 3101 3102 3104 3105 3105 3107 3107 3106 3106 3105 3103 3101 3099 3097 3095 3092 3090 3088 3086 3082 3081 3078
3067 3072 3071 3072 3073 3075 3076 3077 3080 3082 3084 3083 3082 3075 3078 3082 3085 3088 3091 3093 3094 3094 3096 3098 3098 3099 3099 3100 3100 3100 3098 3097 3094 3092 3089 3087 3084 3082 3080 3077 3075 3074 3072 3070
3056 3061 3065 3067 3069 3066 3065 3065 3069 3073 3076 3070 3079 3068 3074 3077 3079 3081 3083 3086 3088 3089 3091 3092 3091 3090 3091 3092 3090 3089 3087 3086 3085 3083 3080 3079 3075 3073 3071 3069 3066 3064 3062 3059
3048 3049 3047 3042 3045 3050 3052 3055 3060 3064 3064 3063 3057 3065 3066 3069 3072 3074 3075 3079 3081 3082 3082 3084 3083 3083 3084 3082 3079 3077 3076 3075 3074 3073 3072 3069 3067 3065 3063 3060 3057 3055 3053 3050
3035 3034 3038 3038 3040 3042 3043 3045 3049 3049 3052 3054 3054 3055 3060 3064 3066 3067 3068 3072 3071 3073 3072 3073 3073 3073 3072 3071 3071 3069 3067 3066 3065 3063 3062 3060 3058 3056 3054 3051 3048 3045 3043 3040
3020 3020 3024 3026 3030 3033 3033 3036 3037 3042 3045 3045 3047 3044 3051 3055 3057 3057 3061 3061 3062 3064 3064 3065 3064 3062 3062 3062 3063 3060 3059 3057 3055 3054 3054 3052 3050 3048 3045 3042 3039 3036 3034 3031
3009 3009 3012 3014 3020 3023 3024 3017 3025 3027 3031 3035 3035 3035 3042 3046 3047 3049 3051 3051 3053 3055 3055 3054 3055 3053 3052 3052 3052 3050 3047 3046 3045 3045 3045 3042 3040 3038 3035 3032 3029 3027 3025 3021
2999 3003 3005 3005 3011 3010 3003 3006 3011 3014 3019 3022 3027 3029 3034 3035 3037 3040 3041 3042 3042 3044 3044 3044 3045 3045 3043 3041 3041 3039 3038 3036 3035 3035 3034 3032 3030 3028 3025 3023 3020 3018 3015 3012
2995 2997 2998 3000 3002 2999 2996 2998 3003 3006 3009 3014 3019 3023 3025 3026 3028 3029 3030 3030 3031 3032 3033 3036 3035 3035 3033 3031 3031 3029 3027 3027 3026 3025 3024 3022 3020 3019 3016 3014 3011 3009 3006 3002
2987 2991 2993 2992 2993 2992 2989 2994 2997 3000 3000 3006 3012 3016 3017 3017 3016 3022 3021 3020 3021 3023 3022 3025 3025 3025 3023 3021 3021 3021 3019 3018 3017 3015 3014 3012 3011 3009 3007 3005 3002 2999 2996 2992
2978 2981 2982 2982 2981 2981 2984 2989 2991 2995 2998 2996 3001 3006 3006 3006 3009 3011 3014 3013 3013 3014 3013 3013 3012 3012 3012 3011 3012 3011 3010 3009 3008 3005 3004 3002 3001 2999 2997 2995 2992 2989 2986 2982
2969 2973 2974 2975 2976 2976 2976 2979 2984 2986 2987 2992 2994 2996 2998 3000 3001 3002 3005 3005 3004 3003 3003 3001 3001 3001 3001 3002 3002 3002 3000 3000 2998 2996 2995 2993 2991 2989 2987 2984 2981 2978 2975 2972
2967 2965 2967 2970 2967 2968 2970 2973 2976 2979 2983 2985 2987 2988 2989 2990 2992 2992 2993 2993 2992 2990 2991 2990 2990 2990 2991 2992 2992 2991 2991 2989 2987 2986 2984 2982 2980 2978 2976 2973 2970 2967 2963 2960
2958 2961 2959 2962 2960 2961 2964 2965 2970 2972 2976 2978 2979 2979 2979 2980 2981 2981 2982 2983 2982 2981 2980 2980 2980 2981 2982 2982 2982 2981 2980 2978 2977 2975 2973 2971 2969 2967 2964 2961 2958 2955 2952 2949
2952 2950 2950 2951 2955 2958 2959 2960 2963 2967 2968 2969 2971 2971 2970 2971 2972 2973 2974 2974 2972 2972 2971 2971 2972 2972 2972 2972 2971 2970 2969 2967 2966 2964 2963 2960 2958 2956 2952 2950 2947 2944 2940 2937
2940 2941 2945 2948 2952 2953 2954 2956 2957 2957 2960 2962 2961 2962 2962 2962 2964 2964 2964 2964 2963 2962 2962 2962 2962 2962 2962 2961 2960 2959 2958 2956 2955 2953 2951 2949 2946 2944 2941 2938 2935 2932 2928 2925